Probability
0 0 0 0 0 0 0 0 0 0 0 0 0 1 4 5 4 3 2 1 0 0 0 0 0 0 0 0 0 1 2 3 3 3 2 2 1 0
0 0 0 0 0 0 0 0 0 0 0 0 0 1 3 4 3 3 3 1 1 0 0 0 0 0 0 0 0 0 1 1 1 1 1 1 0 0
0 0 0 0 0 0 0 0 0 0 0 0 0 0 1 2 3 3 3 3 2 1 0 0 0 0 0 0 0 0 0 0 0 0 0 0 0 0
0 0 0 0 0 0 0 0 0 0 0 0 0 0 0 1 1 2 3 3 2 1 0 0 0 0 0 0 0 0 0 0 0 0 0 0 0 0
0 0 0 0 0 0 0 0 0 0 0 0 0 0 0 0 0 1 1 2 1 1 0 0 0 0 0 0 0 0 0 0 0 0 0 0 0 0
0 0 0 0 0 0 0 0 0 0 0 0 0 0 0 0 0 0 1 1 1 1 1 0 0 0 0 0 0 0 0 0 0 0 0 0 0 0
0 0 0 0 0 0 0 0 0 0 0 0 0 0 0 0 0 1 1 0 1 2 2 1 0 0 0 0 0 0 0 0 0 0 0 0 0 0
0 0 0 0 0 0 0 0 0 0 0 0 0 0 0 0 0 0 0 0 1 2 3 2 1 0 0 0 0 0 0 0 0 0 0 0 0 0
0 0 0 0 0 0 0 0 0 0 0 0 0 0 0 0 0 0 0 0 1 2 3 3 2 1 0 0 0 0 0 0 0 0 0 0 0 0
0 0 0 0 0 0 0 0 0 0 0 0 0 0 0 0 0 0 0 0 0 1 3 3 3 1 0 0 0 0 0 0 0 0 0 0 0 0
0 0 0 0 0 0 0 0 0 0 0 0 0 0 0 0 0 0 0 0 0 1 2 2 1 0 0 0 0 0 0 0 0 0 0 0 0 0
0 0 0 0 0 0 0 0 0 0 0 0 0 0 0 0 0 0 0 0 0 0 1 1 1 1 0 0 0 0 0 0 0 0 0 0 0 0
0 0 0 0 0 0 0 0 0 0 0 0 0 0 0 0 0 0 0 0 0 0 0 1 2 2 1 0 0 0 0 0 0 0 0 0 0 0
0 0 0 0 0 0 0 0 0 0 0 0 0 0 0 0 0 0 0 0 0 0 0 1 3 3 1 0 0 0 0 0 0 0 0 0 0 0
0 0 0 0 0 0 0 0 0 0 0 0 0 0 0 0 0 0 0 0 0 0 0 0 1 2 2 1 0 0 0 0 0 0 0 0 0 0
0 0 0 0 0 0 0 0 0 0 0 0 0 0 0 0 0 0 0 0 0 0 0 0 0 0 1 0 0 0 0 0 0 0 0 0 0 0
0 0 0 0 0 0 0 0 0 0 0 0 0 0 0 0 0 0 0 0 0 0 0 0 0 0 0 0 0 0 0 0 0 0 0 0 0 0
0 0 0 0 0 0 0 0 0 0 0 0 0 0 0 0 0 0 0 0 0 0 0 0 0 0 0 0 0 0 0 0 0 0 0 0 0 0
0 0 0 0 0 0 0 0 0 0 0 0 0 0 0 0 0 0 0 0 0 0 0 0 0 0 0 0 0 0 0 0 0 0 0 0 0 0
0 0 0 0 0 0 0 0 0 0 0 0 0 0 0 0 0 0 0 0 0 0 0 0 0 0 0 0 0 0 0 0 0 0 0 0 0 0
0 0 0 0 0 0 0 0 0 0 0 0 0 0 0 0 0 0 0 0 0 0 0 0 0 0 0 0 0 0 0 0 0 0 0 0 0 0
0 0 0 0 0 0 0 0 0 0 0 0 0 0 0 0 0 0 0 0 0 0 0 0 0 0 0 0 0 0 0 0 0 0 0 0 0 0
0 0 0 0 0 0 0 0 0 0 0 0 0 0 0 0 0 0 0 0 0 0 0 0 0 0 0 0 0 0 0 0 0 0 0 0 0 0
Wind_Speed
5 5 4 4 3 3 3 3 3 2 2 2 1 1 2 3 5 7 7 11 13 13 14 13 13 13 13 14 14 14 13 13 13 14 14 15 16 17
4 5 5 4 3 3 3 3 3 3 3 1 1 1 2 2 4 5 6 9 12 13 13 12 12 12 12 12 12 12 12 12 12 12 12 12 12 13
6 6 7 5 4 4 4 3 3 3 3 2 1 1 2 2 2 3 3 4 6 11 12 12 11 12 12 12 11 11 11 11 11 11 11 11 11 11
7 7 8 6 6 5 4 5 4 4 3 3 2 1 2 2 2 3 3 3 3 7 11 11 11 11 11 11 10 10 9 10 9 9 9 9 9 9
8 8 8 7 7 6 6 6 5 4 4 3 3 1 1 1 2 2 3 2 2 5 8 9 10 10 10 10 9 9 9 9 9 8 8 8 8 8
8 8 8 8 9 8 7 7 6 5 4 3 3 2 2 2 2 3 3 2 2 3 4 5 8 9 9 9 9 9 9 9 8 8 7 7 6 6
8 8 9 10 11 9 7 7 7 6 5 4 4 3 3 3 3 3 4 3 2 2 4 4 5 5 5 7 8 9 9 8 8 7 7 7 6 6
9 9 9 11 12 13 14 13 12 9 8 6 5 5 5 4 3 4 4 4 3 3 4 4 4 4 4 4 6 8 9 8 8 8 7 7 6 6
9 8 8 8 10 9 11 13 14 14 13 9 8 7 6 6 5 6 6 6 4 6 5 4 4 4 3 3 7 8 9 8 8 8 7 7 6 5
9 10 10 9 9 9 9 9 9 10 11 9 8 8 7 6 7 6 6 4 3 4 4 4 4 3 3 3 5 8 9 9 9 8 7 7 7 6
9 9 10 10 11 11 9 9 8 7 9 10 10 9 9 9 7 5 6 6 5 4 3 4 5 4 3 3 3 7 8 9 9 9 9 8 8 7
7 8 11 12 12 12 10 9 9 8 6 7 7 7 8 9 10 8 7 7 5 4 5 5 5 5 4 2 3 4 5 7 9 9 9 9 9 6
6 5 6 10 12 12 11 9 10 8 6 6 6 5 5 5 7 6 6 6 6 4 6 6 5 5 5 4 3 3 4 4 5 5 7 8 7 6
6 5 5 7 9 10 9 9 10 8 5 5 5 5 5 5 5 6 6 6 5 5 8 7 5 6 6 5 4 4 4 4 5 5 5 7 7 7
5 6 6 7 7 6 9 10 9 6 6 6 6 5 5 5 5 4 5 5 4 5 7 6 6 7 6 6 6 6 5 4 5 5 5 5 5 5
4 4 5 6 5 5 5 6 6 6 6 6 5 5 4 4 5 4 4 5 4 4 4 6 7 8 5 6 6 7 6 7 6 6 5 4 4 4
3 2 2 2 3 3 4 4 5 5 6 5 5 4 4 4 4 4 4 5 5 5 5 4 4 4 4 6 6 7 7 6 7 7 6 5 4 4
3 2 3 3 4 4 4 4 5 6 6 6 5 5 5 5 5 4 5 6 6 6 6 6 7 5 3 1 3 7 7 6 7 8 6 5 5 4
3 3 3 4 4 4 4 4 5 5 5 6 6 6 5 5 5 5 5 6 6 6 6 7 7 7 7 6 4 5 7 7 8 7 6 4 5 5
2 3 3 3 3 4 4 4 4 5 5 6 6 6 6 6 6 6 6 7 7 7 7 7 8 8 8 7 5 5 8 9 8 8 6 4 3 4
3 3 3 3 3 3 4 4 4 5 5 6 6 7 6 6 6 6 6 8 7 7 8 8 7 8 5 5 6 5 5 7 7 7 8 6 5 5
3 3 3 3 3 3 3 4 4 5 6 5 6 6 6 7 7 8 7 7 6 7 7 6 7 8 6 7 7 7 7 6 5 7 6 4 6 7
3 3 2 2 2 3 3 4 5 4 5 5 6 6 6 6 6 6 7 7 7 7 6 7 7 6 6 7 8 7 10 9 7 6 3 3 3 4
Wind_Direction
232 227 227 229 219 222 215 211 219 239 245 240 234 224 217 207 207 207 208 203 200 198 199 199 198 196 195 195 198 201 204 207 210 212 213 214 216 218
233 229 228 230 224 221 219 218 216 219 240 247 246 283 259 241 214 208 208 198 197 195 195 196 194 192 190 191 195 198 201 204 206 208 209 211 214 218
240 231 232 225 221 220 215 213 217 215 227 249 255 263 249 242 229 200 189 192 193 191 190 188 187 187 186 186 188 192 196 200 202 204 206 209 213 217
241 234 236 228 221 217 212 213 214 214 215 233 242 245 235 225 204 184 172 181 181 181 179 177 177 177 177 178 181 186 191 194 196 199 203 205 209 214
243 237 237 228 226 219 213 214 214 215 210 220 233 237 235 200 162 151 141 135 156 161 166 167 168 167 168 172 175 180 184 188 190 192 196 199 204 210
244 239 237 229 226 222 216 213 209 212 208 217 224 235 237 201 169 163 154 145 149 149 143 146 152 154 161 167 172 173 175 178 181 184 187 191 196 204
249 243 240 237 233 224 220 211 204 205 203 213 218 218 220 200 192 175 170 148 142 148 141 141 140 144 154 162 167 168 167 170 173 177 181 185 192 198
250 247 246 247 245 236 227 216 204 203 203 204 209 215 218 214 190 178 167 164 174 168 157 152 146 150 153 160 162 163 164 165 169 173 176 179 185 190
247 246 249 244 235 235 233 227 217 213 205 201 207 212 211 204 197 188 187 182 180 165 156 154 152 155 143 142 156 163 165 165 166 167 168 169 173 176
246 242 242 246 238 228 230 228 223 219 213 209 210 212 210 202 203 202 186 165 136 155 158 155 155 151 136 136 152 161 162 161 161 160 158 158 157 153
248 243 239 241 237 226 225 224 222 224 221 213 208 210 208 202 193 182 171 167 171 175 172 155 147 136 134 141 138 147 151 152 151 150 150 149 145 136
254 247 239 236 233 221 219 216 217 217 207 203 205 210 210 206 194 196 186 179 166 174 172 157 150 145 143 140 144 145 139 137 138 140 143 144 146 138
254 251 244 231 227 220 213 214 215 204 201 197 194 198 200 201 198 199 196 185 178 177 167 157 153 153 146 141 145 151 153 149 139 133 136 139 143 145
252 250 244 232 225 219 215 215 206 195 191 191 193 198 199 200 199 196 198 195 184 174 167 161 153 162 151 147 153 152 153 154 148 144 140 132 121 114
250 249 240 227 221 220 219 209 198 192 187 193 200 204 204 198 188 184 184 184 173 168 165 170 156 156 157 155 152 154 154 161 160 153 153 155 152 149
258 249 234 220 212 210 208 204 202 196 190 197 198 196 189 186 186 179 176 174 167 164 170 171 167 158 153 152 154 160 163 161 164 164 154 151 153 159
274 246 227 203 198 199 197 192 193 191 196 196 190 186 187 187 186 180 175 171 175 170 163 157 153 144 147 152 155 163 161 157 160 159 156 156 163 168
249 235 231 218 210 204 200 196 195 196 197 197 193 190 191 191 187 182 182 180 177 174 171 162 152 142 125 93 154 162 163 161 158 160 160 160 168 174
236 236 235 230 221 211 203 198 199 197 192 194 195 193 192 192 188 187 189 188 183 178 175 170 171 170 172 177 170 173 165 158 157 161 168 167 171 172
243 245 245 240 229 217 207 203 198 187 189 194 195 194 194 192 192 192 192 192 184 179 178 179 183 186 186 175 159 166 173 164 163 164 160 144 116 117
263 256 251 241 229 219 209 202 196 191 192 192 194 193 193 193 196 198 192 187 185 183 186 190 187 168 142 131 137 145 162 168 159 158 155 151 151 159
266 259 253 245 231 220 210 201 196 194 192 196 196 193 192 192 197 197 190 184 189 190 189 177 161 160 167 176 169 157 150 147 130 123 131 147 164 177
277 269 258 245 233 215 206 205 204 203 197 196 194 192 190 192 195 192 189 186 185 185 177 168 166 171 178 176 166 158 156 153 149 145 130 48 115 121